Location: Regona
(45.2000°N, 9.8167°E)
Time: 12:22:44
(UTC+00:00)

Cosmos 2360 Rocket - Pass Details

Date: 07 June 2020
Orbit: 833 x 846 km, 71.0° (Epoch: 01 July)

Event Time Altitude Azimuth Distance (km) Brightness Sun altitude
Exits shadow 00:43:58 11° 140° (SE) 2,400 4.3 -19.4°
Maximum altitude 00:47:31 18° 99° (E) 1,922 4.2 -19.1°
Drops below altitude 10° 00:51:15 10° 57° (ENE) 2,458 5.4 -18.9°
Sets 00:54:24 0° 40° (NE) 3,400 6.7 -18.7°
